TimeEST,TemperatureF,Dew PointF,Humidity,Sea Level PressureIn,VisibilityMPH,Wind Direction,Wind SpeedMPH,Gust SpeedMPH,PrecipitationIn,Events,Conditions,WindDirDegrees,DateUTC
12:52 AM,33.1,28.9,85,29.95,8.0,Calm,Calm,-,N/A,,Overcast,0,2013-02-06 05:52:00
1:52 AM,32.0,28.9,88,29.95,5.0,Calm,Calm,-,0.00,Rain,Light Rain,0,2013-02-06 06:52:00
2:52 AM,33.1,28.9,85,29.95,7.0,Calm,Calm,-,0.00,,Mostly Cloudy,0,2013-02-06 07:52:00
3:52 AM,32.0,28.0,85,29.97,7.0,Calm,Calm,-,N/A,,Overcast,0,2013-02-06 08:52:00
4:52 AM,32.0,30.0,92,30.01,7.0,Calm,Calm,-,N/A,,Overcast,0,2013-02-06 09:52:00
5:52 AM,32.0,28.9,88,30.04,8.0,Calm,Calm,-,N/A,,Mostly Cloudy,0,2013-02-06 10:52:00
6:52 AM,30.0,27.0,88,30.08,7.0,SSW,3.5,-,N/A,,Partly Cloudy,210,2013-02-06 11:52:00
7:52 AM,37.4,28.4,70,30.11,10.0,NNW,16.1,20.7,N/A,,Scattered Clouds,340,2013-02-06 12:52:00
8:52 AM,39.9,26.1,58,30.14,10.0,NNW,18.4,27.6,N/A,,Scattered Clouds,330,2013-02-06 13:52:00
9:52 AM,41.0,27.0,57,30.17,10.0,NW,20.7,27.6,N/A,,Scattered Clouds,320,2013-02-06 14:52:00
10:52 AM,42.1,27.0,55,30.20,10.0,NW,13.8,-,N/A,,Mostly Cloudy,320,2013-02-06 15:52:00
11:52 AM,41.0,24.1,51,30.21,10.0,NW,10.4,-,N/A,,Mostly Cloudy,310,2013-02-06 16:52:00
12:52 PM,44.1,24.1,45,30.20,10.0,NW,16.1,24.2,N/A,,Scattered Clouds,320,2013-02-06 17:52:00
1:52 PM,45.0,24.1,44,30.20,10.0,NNW,12.7,23.0,N/A,,Scattered Clouds,330,2013-02-06 18:52:00
2:52 PM,45.0,25.0,46,30.21,10.0,NW,15.0,21.9,N/A,,Partly Cloudy,310,2013-02-06 19:52:00
3:52 PM,45.0,25.0,46,30.22,10.0,NW,12.7,-,N/A,,Clear,320,2013-02-06 20:52:00
4:52 PM,42.1,24.1,49,30.24,10.0,NNW,12.7,-,N/A,,Clear,340,2013-02-06 21:52:00
5:52 PM,39.9,24.1,53,30.27,10.0,North,11.5,-,N/A,,Partly Cloudy,350,2013-02-06 22:52:00
6:52 PM,37.0,23.0,57,30.29,10.0,North,11.5,-,N/A,,Clear,350,2013-02-06 23:52:00
7:52 PM,36.0,23.0,59,30.30,10.0,North,8.1,-,N/A,,Clear,10,2013-02-07 00:52:00
8:52 PM,35.1,23.0,61,30.32,10.0,North,10.4,-,N/A,,Clear,350,2013-02-07 01:52:00
9:52 PM,32.0,21.9,66,30.34,10.0,NNE,5.8,-,N/A,,Clear,30,2013-02-07 02:52:00
10:52 PM,32.0,19.9,61,30.35,10.0,NE,5.8,-,N/A,,Clear,40,2013-02-07 03:52:00
11:52 PM,28.0,19.9,72,30.34,10.0,ESE,3.5,-,N/A,,Clear,120,2013-02-07 04:52:00